Regional Weather Roundup
Issued by NWS

Home | Current Version | Previous Version | Text Only | Print | Product List | Glossary Off
Versions: 1 2 3 4 5 6 7 8 9 10 11 12 13 14 15 16 17 18 19 20 21 22 23 24 25 26 27 28 29 30 31 32 33 34 35 36 37 38 39 40 41 42 43 44 45 46 47 48 49 50

000
ASUS45 KABQ 191701
RWRNM
NEW MEXICO REGIONAL WEATHER ROUNDUP
NATIONAL WEATHER SERVICE ALBUQUERQUE NM
1000 AM MST SUN FEB 19 2017

NOTE: "FAIR" MEANS FEW OR NO CLOUDS BELOW 12,000 FEET AGL WITH NO
       SIGNIFICANT WEATHER OR OBSTRUCTIONS TO VISION.

      THIS PRODUCT IS RELEASED AS TWO VERSIONS.  ONE VERSION NEAR
      THE TOP OF THE HOUR CONTAINING PRELIMINARY DATA FROM ALBUQUERQUE
      AND OTHER STATIONS.  A FINAL VERSION WITH ADDITIONAL DATA IS
      ISSUED ABOUT 10 MINUTES AFTER THE HOUR.

NMZ501-503-504-510>518-191800-
NORTHWEST PLATEAU/NORTHCENTRAL MOUNTAINS

CITY           SKY/WX    TMP DP  RH WIND       PRES   REMARKS
FARMINGTON     FAIR      44  33  65 W12       29.82R
LOS ALAMOS     CLOUDY    38  33  83 S14       29.87S WCI  29
SANTA FE       CLOUDY    42  35  76 SW9       29.87R
TAOS             N/A     43  28  56 W13       29.84R
ANGEL FIRE     FAIR      42  26  53 S12       29.83F

$$
NMZ402-403-502-505>509-191800-
WESTCENTRAL MOUNTAINS/SOUTHWEST MOUNTAINS

CITY           SKY/WX    TMP DP  RH WIND       PRES   REMARKS
GALLUP         FAIR      41  32  70 SW18G24   29.89R
GRANTS         FAIR      42  29  59 SW7       29.90S
SILVER CITY    CLOUDY    42  33  69 SE3       29.95R

$$
NMZ407-409-411-412-191800-
SOUTHERN DESERTS

CITY           SKY/WX    TMP DP  RH WIND       PRES   REMARKS
DEMING         PTSUNNY   45  35  68 W12       29.96R
LAS CRUCES     FAIR      47  36  65 SW17      29.95S
HOLLOMAN AFB   FAIR      50  36  57 S8        29.95R
ALAMOGORDO     FAIR      50  36  57 S10       29.93R
T OR C         FAIR      47  32  56 VRB5      29.90R

$$
NMZ519>523-191800-
CENTRAL VALLEYS/CENTRAL HIGHLANDS

CITY           SKY/WX    TMP DP  RH WIND       PRES   REMARKS
ALBUQUERQUE    PTSUNNY   43  39  86 S12       29.89S
DOUBLE EAGLE   PTSUNNY   41  37  87 S9        29.90R
MORIARTY ARPT  PTSUNNY   44  34  66 S13       29.90S
CLINES CORNERS FAIR      38  29  70 SW20G26   29.89R WCI  28
BELEN          FAIR      46  37  69 S6        29.89S
SOCORRO        FAIR      47  38  71 SE5       29.90R

$$
NMZ524>526-539-540-191800-
SOUTHCENTRAL MOUNTAINS

CITY           SKY/WX    TMP DP  RH WIND       PRES   REMARKS
RUIDOSO        NOT AVBL

$$
NMZ527>531-191800-
NORTHEAST HIGHLANDS/NORTHEAST PLAINS

CITY           SKY/WX    TMP DP  RH WIND       PRES   REMARKS
LAS VEGAS      FAIR      46  31  55 S13       29.84R
RATON          FAIR      44  31  60 S7        29.81F
CLAYTON        FAIR      50  42  74 S16       29.80F

$$
NMZ532>537-191800-
EASTCENTRAL PLAINS

CITY           SKY/WX    TMP DP  RH WIND       PRES   REMARKS
TUCUMCARI      FAIR      54  35  48 W12       29.78F
CANNON AFB     CLOUDY    54  42  64 NW3       29.84R
CLOVIS AIRPORT FAIR      52  39  62 NE3       29.85R

$$
NMZ028-029-538-191800-
SOUTHEAST PLAINS

CITY           SKY/WX    TMP DP  RH WIND       PRES   REMARKS
ROSWELL        PTSUNNY   53  35  50 SE7         N/A
ARTESIA        FAIR      57  34  41 W15       29.88S
CARLSBAD       FAIR      57  36  45 S8        29.88R
HOBBS          SUNNY     59  34  38 SW6       29.88R


$$




USA.gov is the U.S. government's official web portal to all federal, state and local government web resources and services.